Location: Albuquerque Trailhead
(34.7934°N, 106.3736°W)
Time: 01:15:07
(UTC+00:00)

Cosmos 1825 - Pass Details

Date: 20 June 2021
Orbit: 500 x 507 km, 82.5° (Epoch: 27 July)

Event Time Altitude Azimuth Distance (km) Brightness Sun altitude
Exits shadow 08:06:38 23° 357° (N) 1,119 4.5 -30.1°
Drops below altitude 10° 08:08:09 10° 2° (N) 1,723 5.7 -30.0°
Sets 08:10:17 0° 4° (N) 2,611 6.9 -29.9°
